Weather History for Baker, MT

Change the Weather History Date:

Friday, December 21, 2012

  Actual Average Record
Temperature  
Mean Temperature 28 °F -  
Max Temperature 44 °F 36 °F 46 °F (2006)
Min Temperature 12 °F -24 °F -18 °F (2008)
Degree Days  
Heating Degree Days 37    
Moisture  
Dew Point 11 °F    
Average Humidity 60    
Maximum Humidity 77    
Minimum Humidity 25    
Precipitation  
Precipitation 0.00 in - - ()
Sea Level Pressure  
Sea Level Pressure 30.06 in    
Wind  
Wind Speed 2 mph (South)    
Max Wind Speed 5 mph    
Max Gust Speed -    
Visibility 10 miles    
Events      
Averages and records for this station are not official NWS values.
T = Trace of Precipitation, MM = Missing Value Source: NWS Daily Summary

Daily Weather History Graph

Daily Weather History Graph

Search for Another Location

Airport:

Trip Planner

Search our weather history database for the weather conditions in past years. The results will help you decide how hot, cold, wet, or windy it might be!

Date:

Astronomy

Dec. 21, 2012 Rise Set
Actual Time 7:37 AM MST 4:13 PM MST
Civil Twilight 7:02 AM MST 4:48 PM MST
Nautical Twilight 6:24 AM MST 5:26 PM MST
Astronomical Twilight 5:47 AM MST 6:03 PM MST
Moon 12:14 PM MST (12/21) 1:12 AM MST (12/21)
Length of Visible Light 9h 45m
Length of Day
8h 35m
Waxing Gibbous, 65% of the Moon is Illuminated
Dec 21
Waxing Gibbous
Dec 28
Full
Jan 4
Last Quarter
Jan 11
New
Jan 18
First Quarter

Hourly Weather History & Observations

Time (MST) Temp. Windchill Dew Point Humidity Pressure Visibility Wind Dir Wind Speed Gust Speed Precip Events Conditions
12:51 AM 15.1 °F 9.4 °F 8.1 °F 74% 30.08 in 10.0 mi ESE 3.5 mph - N/A   Clear
1:51 AM 15.1 °F 7.7 °F 8.1 °F 74% 30.08 in 10.0 mi SE 4.6 mph - N/A   Clear
2:51 AM 14.0 °F - 7.0 °F 74% 30.08 in 10.0 mi Calm Calm - N/A   Clear
3:51 AM 12.9 °F - 6.1 °F 74% 30.09 in 10.0 mi Calm Calm - N/A   Clear
4:51 AM 15.1 °F 9.4 °F 7.0 °F 70% 30.10 in 10.0 mi ESE 3.5 mph - N/A   Clear
5:51 AM 14.0 °F 8.2 °F 6.1 °F 71% 30.12 in 10.0 mi South 3.5 mph - N/A   Clear
6:51 AM 16.0 °F - 8.1 °F 71% 30.11 in 10.0 mi Calm Calm - N/A   Clear
7:51 AM 15.1 °F - 6.1 °F 68% 30.11 in 10.0 mi Calm Calm - N/A   Clear
8:51 AM 24.1 °F - 12.9 °F 62% 30.12 in 10.0 mi Calm Calm - N/A   Clear
9:51 AM 34.0 °F - 17.1 °F 50% 30.10 in 10.0 mi Calm Calm - N/A   Clear
10:51 AM 44.1 °F 42.5 °F 10.0 °F 25% 30.06 in 10.0 mi West 3.5 mph - N/A   Clear
11:51 AM 44.1 °F - 10.9 °F 26% 30.04 in 10.0 mi Calm Calm - N/A   Clear
12:51 PM 43.0 °F 40.3 °F 12.0 °F 28% 30.02 in 10.0 mi West 4.6 mph - N/A   Clear
1:51 PM 43.0 °F 41.3 °F 12.9 °F 30% 30.01 in 10.0 mi SW 3.5 mph - N/A   Clear
3:51 PM 37.0 °F 34.5 °F 15.1 °F 41% 30.04 in 10.0 mi NW 3.5 mph - N/A   Clear
4:51 PM 30.0 °F - 15.1 °F 54% 30.05 in 10.0 mi Calm Calm - N/A   Clear
5:51 PM 26.1 °F 21.9 °F 15.1 °F 63% 30.06 in 10.0 mi SE 3.5 mph - N/A   Clear
6:51 PM 25.0 °F - 15.1 °F 66% 30.04 in 10.0 mi Calm Calm - N/A   Clear
7:51 PM 23.0 °F - 14.0 °F 68% 30.05 in 10.0 mi Calm Calm - N/A   Clear
8:51 PM 21.0 °F - 12.9 °F 71% 30.03 in 10.0 mi Calm Calm - N/A   Clear
9:51 PM 19.9 °F 14.9 °F 12.0 °F 71% 30.01 in 10.0 mi North 3.5 mph - N/A   Clear
10:51 PM 17.1 °F - 10.0 °F 74% 30.01 in 10.0 mi Calm Calm - N/A   Clear
11:51 PM 16.0 °F - 10.0 °F 77% 30.01 in 10.0 mi Calm Calm - N/A   Clear